Basel, France

12:12 PM CEST on July 25, 2017 (GMT +0200)
Basle-Mulhouse

Weather History for LFSB - February, 2013

Change the Weather History Date:

Tuesday, February 19, 2013

  Actual Average Record
Temperature  
Mean Temperature 37 °F -  
Max Temperature 48 °F 49 °F 59 °F (1998)
Min Temperature 26 °F 32 °F 17 °F (2009)
Degree Days  
Heating Degree Days 28    
Moisture  
Dew Point 28 °F    
Average Humidity 74    
Maximum Humidity 93    
Minimum Humidity 40    
Precipitation  
Precipitation 0.00 in - - ()
Sea Level Pressure  
Sea Level Pressure 30.04 in    
Wind  
Wind Speed 4 mph ()    
Max Wind Speed 10 mph    
Max Gust Speed -    
Visibility 5.0 miles    
Events Rain    
Averages and records for this station are not official NWS values.
T = Trace of Precipitation, MM = Missing Value Source: Averaged Metar Reports

Daily Weather History Graph

Daily Weather History Graph

Search for Another Location

Airport or City:

Trip Planner

Search our weather history database for the weather conditions in past years. The results will help you decide how hot, cold, wet, or windy it might be!

Date:

Astronomy

Feb. 19, 2013 Rise Set
Actual Time 7:28 AM CET 5:59 PM CET
Civil Twilight 6:57 AM CET 6:30 PM CET
Nautical Twilight 6:21 AM CET 7:06 PM CET
Astronomical Twilight 5:45 AM CET 7:42 PM CET
Moon 12:05 PM CET (2/19) 2:59 AM CET (2/19)
Length of Visible Light 11h 33m
Length of Day
10h 30m
Waxing Gibbous, 65% of the Moon is Illuminated
Feb 19
Waxing Gibbous
Feb 25
Full
Mar 4
Last Quarter
Mar 11
New
Mar 19
First Quarter

Hourly Weather History & Observations

Time (CET) Temp. Windchill Dew Point Humidity Pressure Visibility Wind Dir Wind Speed Gust Speed Precip Events Conditions
12:00 AM 30.2 °F - 26.6 °F 86% 30.09 in 5.6 mi Variable 2.3 mph - N/A   Unknown
12:30 AM 30.2 °F 26.7 °F 26.6 °F 86% 30.09 in 5.0 mi Variable 3.5 mph - N/A   Unknown
1:00 AM 28 °F - 25 °F 82% 30.16 in 4 mi SSE 2.3 mph - -   Clear
1:00 AM 28.4 °F - 24.8 °F 86% 30.09 in 5.6 mi Variable 2.3 mph - N/A   Unknown
1:30 AM 26.6 °F - 24.8 °F 93% 30.09 in 6.2 mi Variable 1.2 mph - N/A   Unknown
2:00 AM 26.6 °F - 24.8 °F 93% 30.09 in 5.0 mi East 1.2 mph - N/A   Unknown
2:30 AM 28.4 °F - 24.8 °F 86% 30.09 in 5.0 mi Variable 2.3 mph - N/A   Unknown
3:00 AM 28.4 °F 24.6 °F 26.6 °F 93% 30.06 in 4.3 mi South 3.5 mph - N/A   Unknown
3:30 AM 28.4 °F 23.3 °F 26.6 °F 93% 30.06 in 5.0 mi South 4.6 mph - N/A   Unknown
4:00 AM 28.4 °F 22.2 °F 26.6 °F 93% 30.06 in 4.3 mi SSE 5.8 mph - N/A   Unknown
4:30 AM 28.4 °F 22.2 °F 26.6 °F 93% 30.06 in 5.0 mi South 5.8 mph - N/A   Unknown
5:00 AM 28.4 °F 22.2 °F 26.6 °F 93% 30.06 in 5.0 mi South 5.8 mph - N/A   Unknown
5:30 AM 28.4 °F 22.2 °F 24.8 °F 86% 30.06 in 4.3 mi SSE 5.8 mph - N/A   Unknown
6:00 AM 28.4 °F 22.2 °F 24.8 °F 86% 30.06 in 4.3 mi SSE 5.8 mph - N/A   Unknown
6:30 AM 28.4 °F 23.3 °F 24.8 °F 86% 30.06 in 4.3 mi South 4.6 mph - N/A   Unknown
7:00 AM 28.4 °F 23.3 °F 24.8 °F 86% 30.06 in 4.3 mi South 4.6 mph - N/A   Unknown
7:30 AM 28.4 °F 22.2 °F 24.8 °F 86% 30.06 in 3.7 mi South 5.8 mph - N/A   Unknown
8:00 AM 28.4 °F 22.2 °F 24.8 °F 86% 30.06 in 3.7 mi South 5.8 mph - N/A   Unknown
8:30 AM 28.4 °F 23.3 °F 26.6 °F 93% 30.06 in 3.7 mi South 4.6 mph - N/A   Unknown
9:00 AM 30.2 °F 25.4 °F 26.6 °F 86% 30.06 in 3.7 mi South 4.6 mph - N/A   Unknown
9:30 AM 32.0 °F 25.6 °F 26.6 °F 80% 30.06 in 3.7 mi SSE 6.9 mph - N/A   Unknown
10:00 AM 33.8 °F 27.7 °F 28.4 °F 81% 30.06 in 5.0 mi SSE 6.9 mph - N/A   Unknown
10:30 AM 35.6 °F 30.7 °F 26.6 °F 70% 30.06 in - South 5.8 mph - N/A   Clear
11:00 AM 37.4 °F 32.8 °F 26.6 °F 65% 30.06 in - SSE 5.8 mph - N/A   Clear
11:30 AM 39.2 °F 35.9 °F 26.6 °F 61% 30.04 in - ESE 4.6 mph - N/A   Clear
12:00 PM 41.0 °F 39.0 °F 26.6 °F 57% 30.04 in - South 3.5 mph - N/A   Clear
1:00 PM 44 °F - 28 °F 40% 30.06 in 9 mi SE 3.5 mph - -   Clear
1:00 PM 42.8 °F 41.1 °F 26.6 °F 53% 30.04 in - Variable 3.5 mph - N/A   Clear
1:30 PM 46.4 °F - 28.4 °F 50% 30.01 in - Variable 2.3 mph - N/A   Clear
2:00 PM 48.2 °F - 28.4 °F 46% 30.01 in - Variable 5.8 mph - N/A   Clear
2:30 PM 48.2 °F - 30.2 °F 50% 29.98 in - WSW 9.2 mph - N/A   Clear
3:00 PM 48.2 °F - 32.0 °F 54% 29.98 in - WSW 10.4 mph - N/A   Clear
3:30 PM 48.2 °F - 32.0 °F 54% 29.98 in - WSW 9.2 mph - N/A   Clear
4:00 PM 46.4 °F 41.9 °F 30.2 °F 53% 29.98 in - WSW 9.2 mph - N/A   Clear
4:30 PM 46.4 °F 42.4 °F 30.2 °F 53% 29.95 in - West 8.1 mph - N/A   Clear
5:30 PM 44.6 °F 40.2 °F 32.0 °F 61% 29.95 in - West 8.1 mph - N/A   Clear
6:00 PM 44.6 °F 40.2 °F 30.2 °F 57% 29.98 in - WNW 8.1 mph - N/A   Clear
6:30 PM 42.8 °F 38.6 °F 32.0 °F 66% 29.98 in - West 6.9 mph - N/A   Clear
7:00 PM 42 °F - 31 °F 55% 30.02 in 9 mi North 6.9 mph - -   Overcast
7:00 PM 42.8 °F 38.6 °F 32.0 °F 66% 29.98 in - NW 6.9 mph - N/A   Clear
7:30 PM 41.0 °F 37.1 °F 32.0 °F 70% 29.98 in - NNW 5.8 mph - N/A   Clear
8:00 PM 39.2 °F 33.6 °F 33.8 °F 81% 29.98 in - NW 8.1 mph - N/A   Clear
8:30 PM 39.2 °F 33.6 °F 33.8 °F 81% 30.01 in - NW 8.1 mph - N/A   Clear
9:00 PM 39.2 °F 34.2 °F 32.0 °F 75% 30.01 in - NW 6.9 mph - N/A   Clear
9:30 PM 37.4 °F 32.8 °F 32.0 °F 81% 30.01 in - NW 5.8 mph - N/A   Clear
10:00 PM 37.4 °F 32.8 °F 32.0 °F 81% 30.01 in - WNW 5.8 mph - N/A   Clear
10:30 PM 37.4 °F - 30.2 °F 75% 30.01 in - Variable 2.3 mph - N/A   Clear
11:00 PM 37.4 °F 32.8 °F 32.0 °F 81% 30.01 in - Variable 5.8 mph - N/A   Clear
11:30 PM 37.4 °F 34.9 °F 32.0 °F 81% 30.01 in 6.2 mi Variable 3.5 mph - N/A Rain Light Rain